| time (UTC) | temp C | wind direction | speed KPH | gust KPH | rain 1hr cm | rain 24hr cm | rain mn cm | humidity % | barometer mb |
| 20260507063057 | 15 | 278 | 3.2 | 9.7 | 0.00 | 0.00 | 0.00 | 35 | 1018.1 |
| 20260507061559 | 15 | 0 | 0.0 | 3.2 | 0.00 | 0.00 | 0.00 | 35 | 1017.8 |
| 20260507054614 | 15 | 0 | 0.0 | 3.2 | 0.00 | 0.00 | 0.00 | 34 | 1017.7 |
| 20260507053105 | 16 | 267 | 0.0 | 4.8 | 0.00 | 0.00 | 0.00 | 32 | 1017.5 |
| 20260507051558 | 17 | 281 | 1.6 | 4.8 | 0.00 | 0.00 | 0.00 | 31 | 1017.2 |
| 20260507050059 | 17 | 0 | 0.0 | 1.6 | 0.00 | 0.00 | 0.00 | 31 | 1017.1 |
| 20260507044559 | 18 | 0 | 0.0 | 4.8 | 0.00 | 0.00 | 0.00 | 29 | 1016.9 |
| 20260507043057 | 19 | 279 | 3.2 | 8.0 | 0.00 | 0.00 | 0.00 | 28 | 1016.6 |
| 20260507041603 | 20 | 309 | 1.6 | 11.3 | 0.00 | 0.00 | 0.00 | 27 | 1016.3 |
| 20260507040059 | 20 | 267 | 3.2 | 14.5 | 0.00 | 0.00 | 0.00 | 26 | 1016.0 |
| 20260507034600 | 20 | 5 | 3.2 | 12.9 | 0.00 | 0.00 | 0.00 | 26 | 1015.6 |
| 20260507033059 | 20 | 0 | 0.0 | 9.7 | 0.00 | 0.00 | 0.00 | 26 | 1015.2 |
| 20260507031555 | 21 | 226 | 4.8 | 12.9 | 0.00 | 0.00 | 0.00 | 23 | 1014.9 |
| 20260507030101 | 22 | 259 | 6.4 | 17.7 | 0.00 | 0.00 | 0.00 | 22 | 1014.4 |
| 20260507024557 | 21 | 240 | 8.0 | 19.3 | 0.00 | 0.00 | 0.00 | 23 | 1014.2 |
| 20260507023055 | 21 | 252 | 4.8 | 11.3 | 0.00 | 0.00 | 0.00 | 23 | 1014.0 |
| 20260507021627 | 22 | 240 | 6.4 | 14.5 | 0.00 | 0.00 | 0.00 | 23 | 1013.8 |
| 20260507020110 | 22 | 242 | 4.8 | 16.1 | 0.00 | 0.00 | 0.00 | 23 | 1013.7 |
| 20260507014623 | 22 | 258 | 11.3 | 20.9 | 0.00 | 0.00 | 0.00 | 22 | 1013.7 |
| 20260507013101 | 23 | 206 | 4.8 | 12.9 | 0.00 | 0.00 | 0.00 | 20 | 1013.7 |
| 20260507011600 | 23 | 180 | 8.0 | 19.3 | 0.00 | 0.00 | 0.00 | 21 | 1013.5 |
| 20260507010055 | 23 | 182 | 3.2 | 16.1 | 0.00 | 0.00 | 0.00 | 21 | 1013.6 |
| 20260507004558 | 23 | 197 | 6.4 | 14.5 | 0.00 | 0.00 | 0.00 | 21 | 1013.5 |
| 20260507003054 | 25 | 120 | 6.4 | 19.3 | 0.00 | 0.00 | 0.00 | 19 | 1013.4 |
| 20260507001606 | 25 | 140 | 6.4 | 20.9 | 0.00 | 0.00 | 0.00 | 18 | 1013.3 |
| 20260507000123 | 25 | 128 | 3.2 | 17.7 | 0.00 | 0.00 | 0.00 | 18 | 1013.3 |
| 20260506234618 | 26 | 50 | 8.0 | 16.1 | 0.00 | 0.00 | 0.00 | 18 | 1013.2 |
| 20260506233059 | 26 | 109 | 4.8 | 20.9 | 0.00 | 0.00 | 0.00 | 18 | 1013.2 |
| 20260506231556 | 25 | 106 | 8.0 | 16.1 | 0.00 | 0.00 | 0.00 | 19 | 1013.2 |
| 20260506230103 | 26 | 75 | 9.7 | 19.3 | 0.00 | 0.00 | 0.00 | 19 | 1013.3 |
| 20260506224556 | 26 | 94 | 6.4 | 16.1 | 0.00 | 0.00 | 0.00 | 18 | 1013.4 |
| 20260506223100 | 26 | 177 | 4.8 | 14.5 | 0.00 | 0.00 | 0.00 | 18 | 1013.5 |
| 20260506221603 | 26 | 0 | 3.2 | 14.5 | 0.00 | 0.00 | 0.00 | 18 | 1013.9 |
| 20260506220056 | 25 | 165 | 4.8 | 14.5 | 0.00 | 0.00 | 0.00 | 18 | 1014.0 |
| 20260506214558 | 26 | 202 | 3.2 | 14.5 | 0.00 | 0.00 | 0.00 | 19 | 1014.4 |
| 20260506213056 | 24 | 9 | 4.8 | 19.3 | 0.00 | 0.00 | 0.00 | 19 | 1014.7 |
| 20260506211556 | 24 | 134 | 6.4 | 17.7 | 0.00 | 0.00 | 0.00 | 19 | 1014.9 |
| 20260506210055 | 25 | 25 | 4.8 | 17.7 | 0.00 | 0.00 | 0.00 | 19 | 1015.2 |
| 20260506204556 | 24 | 182 | 3.2 | 17.7 | 0.00 | 0.00 | 0.00 | 20 | 1015.3 |
| 20260506203054 | 24 | 55 | 1.6 | 16.1 | 0.00 | 0.00 | 0.00 | 20 | 1015.4 |
| 20260506201552 | 23 | 105 | 4.8 | 12.9 | 0.00 | 0.00 | 0.00 | 22 | 1015.4 |
| 20260506200100 | 23 | 175 | 3.2 | 20.9 | 0.00 | 0.00 | 0.00 | 22 | 1015.6 |
| 20260506194556 | 22 | 331 | 1.6 | 14.5 | 0.00 | 0.00 | 0.00 | 23 | 1015.9 |
| 20260506193059 | 23 | 137 | 3.2 | 14.5 | 0.00 | 0.00 | 0.00 | 23 | 1016.1 |
| 20260506191604 | 22 | 33 | 4.8 | 12.9 | 0.00 | 0.00 | 0.00 | 24 | 1016.3 |
| 20260506190059 | 21 | 29 | 6.4 | 11.3 | 0.00 | 0.00 | 0.00 | 25 | 1016.5 |
| 20260506184558 | 21 | 342 | 6.4 | 16.1 | 0.00 | 0.00 | 0.00 | 25 | 1016.7 |
| 20260506183102 | 20 | 87 | 6.4 | 14.5 | 0.00 | 0.00 | 0.00 | 27 | 1017.0 |
| 20260506181604 | 21 | 115 | 4.8 | 14.5 | 0.00 | 0.00 | 0.00 | 27 | 1017.2 |
| 20260506180059 | 20 | 105 | 6.4 | 14.5 | 0.00 | 0.00 | 0.00 | 28 | 1017.2 |
| 20260506174554 | 20 | 86 | 1.6 | 12.9 | 0.00 | 0.00 | 0.00 | 29 | 1017.2 |
| 20260506173123 | 18 | 143 | 4.8 | 14.5 | 0.00 | 0.00 | 0.00 | 31 | 1017.3 |
| 20260506171556 | 18 | 86 | 3.2 | 12.9 | 0.00 | 0.00 | 0.00 | 30 | 1017.4 |
| 20260506170109 | 17 | 0 | 6.4 | 17.7 | 0.00 | 0.00 | 0.00 | 32 | 1017.5 |
| 20260506164555 | 17 | 0 | 3.2 | 11.3 | 0.00 | 0.00 | 0.00 | 32 | 1017.5 |
| 20260506163059 | 16 | 73 | 3.2 | 11.3 | 0.00 | 0.00 | 0.00 | 33 | 1017.6 |
| 20260506161555 | 16 | 101 | 3.2 | 12.9 | 0.00 | 0.00 | 0.00 | 35 | 1017.6 |
| 20260506160055 | 16 | 103 | 3.2 | 11.3 | 0.00 | 0.00 | 0.00 | 36 | 1017.6 |
| 20260506154610 | 15 | 88 | 1.6 | 8.0 | 0.00 | 0.00 | 0.00 | 37 | 1017.7 |
| 20260506153059 | 15 | 68 | 0.0 | 9.7 | 0.00 | 0.00 | 0.00 | 38 | 1017.6 |
| 20260506151558 | 14 | 0 | 3.2 | 8.0 | 0.00 | 0.00 | 0.00 | 38 | 1017.7 |
| 20260506150057 | 13 | 33 | 1.6 | 6.4 | 0.00 | 0.00 | 0.00 | 40 | 1017.8 |
| 20260506144559 | 13 | 0 | 1.6 | 4.8 | 0.00 | 0.00 | 0.00 | 40 | 1017.6 |
| 20260506143058 | 13 | 79 | 0.0 | 4.8 | 0.00 | 0.00 | 0.00 | 42 | 1017.5 |
| 20260506141602 | 12 | 0 | 0.0 | 3.2 | 0.00 | 0.00 | 0.00 | 43 | 1017.5 |
| 20260506140109 | 11 | 100 | 0.0 | 3.2 | 0.00 | 0.00 | 0.00 | 45 | 1017.5 |
| 20260506134556 | 11 | 0 | 0.0 | 1.6 | 0.00 | 0.00 | 0.00 | 47 | 1017.4 |
| 20260506133126 | 10 | 0 | 0.0 | 1.6 | 0.00 | 0.00 | 0.00 | 49 | 1017.1 |
| 20260506131558 | 8 | 0 | 0.0 | 0.0 | 0.00 | 0.00 | 0.00 | 54 | 1016.9 |
| 20260506130122 | 6 | 0 | 0.0 | 0.0 | 0.00 | 0.00 | 0.00 | 58 | 1016.8 |
| 20260506124554 | 6 | 0 | 0.0 | 0.0 | 0.00 | 0.00 | 0.00 | 58 | 1016.5 |
| 20260506123054 | 6 | 0 | 0.0 | 0.0 | 0.00 | 0.00 | 0.00 | 56 | 1016.5 |
| 20260506121555 | 7 | 0 | 0.0 | 3.2 | 0.00 | 0.00 | 0.00 | 56 | 1016.1 |
| 20260506120058 | 7 | 239 | 3.2 | 6.4 | 0.00 | 0.00 | 0.00 | 55 | 1015.9 |
| 20260506114604 | 7 | 0 | 0.0 | 6.4 | 0.00 | 0.00 | 0.00 | 55 | 1016.0 |
| 20260506113055 | 6 | 0 | 0.0 | 0.0 | 0.00 | 0.00 | 0.00 | 56 | 1016.0 |
| 20260506111556 | 7 | 249 | 1.6 | 4.8 | 0.00 | 0.00 | 0.00 | 55 | 1016.0 |
| 20260506110054 | 7 | 259 | 0.0 | 6.4 | 0.00 | 0.00 | 0.00 | 53 | 1015.7 |
| 20260506104614 | 7 | 209 | 3.2 | 6.4 | 0.00 | 0.00 | 0.00 | 56 | 1015.6 |
| 20260506103055 | 6 | 0 | 0.0 | 4.8 | 0.00 | 0.00 | 0.00 | 56 | 1015.6 |
| 20260506101557 | 6 | 248 | 0.0 | 3.2 | 0.00 | 0.00 | 0.00 | 56 | 1015.4 |
| 20260506100054 | 7 | 0 | 0.0 | 3.2 | 0.00 | 0.00 | 0.00 | 54 | 1015.4 |
| 20260506094553 | 8 | 259 | 0.0 | 3.2 | 0.00 | 0.00 | 0.00 | 51 | 1015.2 |
| 20260506093055 | 9 | 0 | 0.0 | 0.0 | 0.00 | 0.00 | 0.00 | 50 | 1015.2 |
| 20260506091556 | 9 | 215 | 0.0 | 4.8 | 0.00 | 0.00 | 0.00 | 50 | 1015.0 |
| 20260506090055 | 9 | 0 | 0.0 | 6.4 | 0.00 | 0.00 | 0.00 | 50 | 1015.0 |
| 20260506084555 | 8 | 225 | 0.0 | 6.4 | 0.00 | 0.00 | 0.00 | 51 | 1014.9 |
| 20260506083055 | 10 | 0 | 1.6 | 3.2 | 0.00 | 0.00 | 0.00 | 49 | 1014.8 |
| 20260506081600 | 10 | 0 | 0.0 | 3.2 | 0.00 | 0.00 | 0.00 | 47 | 1014.7 |
| 20260506080104 | 10 | 0 | 1.6 | 6.4 | 0.00 | 0.00 | 0.00 | 45 | 1014.7 |
| 20260506073057 | 11 | 227 | 1.6 | 6.4 | 0.00 | 0.00 | 0.00 | 46 | 1014.7 |
| 20260506071617 | 10 | 242 | 3.2 | 8.0 | 0.00 | 0.00 | 0.00 | 47 | 1014.7 |